When you browse on this site, cookies collect data to enhance your experience and personalize the content and advertising you see.
Visit our Privacy Policy to learn more. By continuing to use the site, you agree to this use of cookies and data.
  • En España
  • Lista de países
  • Para 7 días
  • Temperatura del agua
  • El tiempo en el mapa
  • Informadores
  • user-avatar
    Iniciar sesión

    Tiempo cada hora Cairo

    Hoy, 21 Octubre, Lunes

    Tiempo Temperatura Precipitaciones Viento Presión Humedad
    00:00 +27°C° 0 mm 5 mps 757 mmHg 43%
    01:00 +26°C° 0 mm 4 mps 757 mmHg 43%
    02:00 +26°C° 0 mm 3 mps 756 mmHg 43%
    03:00 +25°C° 0 mm 3 mps 756 mmHg 43%
    04:00 +25°C° 0 mm 2 mps 756 mmHg 43%
    05:00 +25°C° 0 mm 2 mps 756 mmHg 42%
    06:00 +26°C° 0 mm 2 mps 757 mmHg 39%
    07:00 +28°C° 0 mm 1 mps 757 mmHg 35%
    08:00 +29°C° 0 mm 1 mps 757 mmHg 31%
    09:00 +31°C° 0 mm 1 mps 757 mmHg 28%
    10:00 +32°C° 0 mm 1 mps 757 mmHg 25%
    11:00 +35°C° 0 mm 2 mps 757 mmHg 22%
    12:00 +35°C° 0 mm 2 mps 756 mmHg 21%
    13:00 +36°C° 0 mm 2 mps 755 mmHg 20%
    14:00 +37°C° 0 mm 2 mps 754 mmHg 19%
    15:00 +36°C° 0 mm 3 mps 754 mmHg 21%
    16:00 +35°C° 0 mm 3 mps 754 mmHg 22%
    17:00 +34°C° 0 mm 4 mps 754 mmHg 24%
    18:00 +32°C° 0 mm 5 mps 754 mmHg 33%
    19:00 +29°C° 0 mm 6 mps 754 mmHg 42%
    20:00 +27°C° 0 mm 6 mps 754 mmHg 52%
    21:00 +26°C° 0 mm 6 mps 754 mmHg 53%
    22:00 +26°C° 0 mm 5 mps 755 mmHg 55%
    23:00 +25°C° 0 mm 5 mps 755 mmHg 57%

    Mañana, 22 Octubre, Martes

    Tiempo Temperatura Precipitaciones Viento Presión Humedad
    00:00 +25°C° 0 mm 5 mps 754 mmHg 58%
    01:00 +25°C° 0 mm 5 mps 754 mmHg 59%
    02:00 +23°C° 0 mm 5 mps 753 mmHg 59%
    03:00 +23°C° 0 mm 5 mps 753 mmHg 61%
    04:00 +23°C° 0 mm 5 mps 753 mmHg 62%
    05:00 +23°C° 0 mm 5 mps 754 mmHg 63%
    06:00 +25°C° 0 mm 5 mps 754 mmHg 58%
    07:00 +26°C° 0 mm 5 mps 754 mmHg 54%
    08:00 +27°C° 0 mm 5 mps 754 mmHg 50%
    09:00 +28°C° 0 mm 5 mps 754 mmHg 45%
    10:00 +29°C° 0 mm 6 mps 754 mmHg 41%
    11:00 +32°C° 0 mm 6 mps 754 mmHg 37%
    12:00 +32°C° 0 mm 5 mps 753 mmHg 35%
    13:00 +33°C° 0 mm 5 mps 753 mmHg 33%
    14:00 +33°C° 0 mm 5 mps 752 mmHg 31%
    15:00 +30°C° 0.2 mm 6 mps 752 mmHg 40%
    16:00 +28°C° 0.2 mm 7 mps 753 mmHg 48%
    17:00 +26°C° 0.2 mm 8 mps 753 mmHg 57%
    18:00 +24°C° 0.7 mm 7 mps 753 mmHg 58%
    19:00 +23°C° 0.7 mm 6 mps 753 mmHg 59%
    20:00 +23°C° 0.7 mm 4 mps 754 mmHg 60%
    21:00 +23°C° 0.1 mm 4 mps 754 mmHg 62%
    22:00 +24°C° 0.1 mm 3 mps 754 mmHg 63%
    23:00 +24°C° 0.1 mm 3 mps 754 mmHg 65%

    Pasado mañana, 23 Octubre, Miércoles

    Tiempo Temperatura Precipitaciones Viento Presión Humedad
    00:00 +22°C° 0 mm 3 mps 754 mmHg 68%
    01:00 +23°C° 0 mm 2 mps 754 mmHg 71%
    02:00 +23°C° 0 mm 2 mps 754 mmHg 74%
    03:00 +21°C° 0.1 mm 2 mps 754 mmHg 76%
    04:00 +21°C° 0.1 mm 2 mps 754 mmHg 79%
    05:00 +20°C° 0.1 mm 2 mps 754 mmHg 82%
    06:00 +21°C° 0.1 mm 2 mps 754 mmHg 78%
    07:00 +23°C° 0.1 mm 2 mps 755 mmHg 75%
    08:00 +23°C° 0.1 mm 2 mps 755 mmHg 72%
    09:00 +25°C° 0 mm 3 mps 755 mmHg 62%
    10:00 +27°C° 0 mm 3 mps 755 mmHg 52%
    11:00 +28°C° 0 mm 3 mps 755 mmHg 43%
    12:00 +29°C° 0 mm 3 mps 754 mmHg 38%
    13:00 +30°C° 0 mm 3 mps 754 mmHg 33%
    14:00 +31°C° 0 mm 3 mps 753 mmHg 29%
    15:00 +30°C° 0 mm 4 mps 753 mmHg 30%
    16:00 +29°C° 0 mm 5 mps 753 mmHg 32%
    17:00 +29°C° 0 mm 6 mps 754 mmHg 34%
    18:00 +27°C° 0 mm 5 mps 754 mmHg 42%
    19:00 +26°C° 0 mm 5 mps 754 mmHg 50%
    20:00 +25°C° 0 mm 4 mps 755 mmHg 57%
    21:00 +23°C° 0 mm 4 mps 755 mmHg 60%
    22:00 +24°C° 0 mm 3 mps 755 mmHg 62%
    23:00 +24°C° 0 mm 2 mps 755 mmHg 64%

    24 Octubre, Jueves

    Tiempo Temperatura Precipitaciones Viento Presión Humedad
    00:00 +23°C° 0 mm 2 mps 755 mmHg 66%
    01:00 +23°C° 0 mm 2 mps 755 mmHg 69%
    02:00 +21°C° 0 mm 2 mps 755 mmHg 71%
    03:00 +22°C° 0 mm 1 mps 755 mmHg 72%
    04:00 +22°C° 0 mm 1 mps 755 mmHg 73%
    05:00 +21°C° 0 mm 1 mps 755 mmHg 75%
    06:00 +22°C° 0 mm 1 mps 755 mmHg 71%
    07:00 +23°C° 0 mm 1 mps 755 mmHg 67%
    08:00 +24°C° 0 mm 1 mps 755 mmHg 64%
    09:00 +25°C° 0 mm 2 mps 755 mmHg 57%
    10:00 +26°C° 0 mm 2 mps 755 mmHg 50%
    11:00 +27°C° 0 mm 2 mps 755 mmHg 44%
    12:00 +28°C° 0 mm 2 mps 755 mmHg 40%
    13:00 +29°C° 0 mm 2 mps 754 mmHg 37%
    14:00 +30°C° 0 mm 2 mps 754 mmHg 33%
    15:00 +29°C° 0 mm 2 mps 754 mmHg 33%
    16:00 +29°C° 0 mm 3 mps 754 mmHg 33%
    17:00 +29°C° 0 mm 3 mps 754 mmHg 33%
    18:00 +27°C° 0 mm 3 mps 754 mmHg 42%
    19:00 +26°C° 0 mm 4 mps 755 mmHg 50%
    20:00 +23°C° 0 mm 5 mps 755 mmHg 58%
    21:00 +23°C° 0 mm 4 mps 755 mmHg 61%
    22:00 +22°C° 0 mm 3 mps 755 mmHg 64%
    23:00 +23°C° 0 mm 2 mps 756 mmHg 66%

    25 Octubre, Viernes

    Tiempo Temperatura Precipitaciones Viento Presión Humedad
    00:00 +21°C° 0 mm 2 mps 755 mmHg 67%
    01:00 +22°C° 0 mm 1 mps 755 mmHg 68%
    02:00 +22°C° 0 mm 1 mps 755 mmHg 68%
    03:00 +22°C° 0 mm 1 mps 755 mmHg 70%
    04:00 +21°C° 0 mm 1 mps 755 mmHg 71%
    05:00 +21°C° 0 mm 1 mps 755 mmHg 72%
    06:00 +21°C° 0 mm 2 mps 756 mmHg 69%
    07:00 +23°C° 0 mm 2 mps 756 mmHg 66%
    08:00 +24°C° 0 mm 2 mps 756 mmHg 62%
    09:00 +25°C° 0 mm 2 mps 756 mmHg 56%
    10:00 +26°C° 0 mm 2 mps 756 mmHg 50%
    11:00 +28°C° 0 mm 2 mps 756 mmHg 44%
    12:00 +28°C° 0 mm 2 mps 756 mmHg 40%
    13:00 +29°C° 0 mm 3 mps 756 mmHg 36%
    14:00 +30°C° 0 mm 3 mps 755 mmHg 32%
    15:00 +30°C° 0 mm 4 mps 755 mmHg 34%
    16:00 +29°C° 0 mm 4 mps 755 mmHg 37%
    17:00 +29°C° 0 mm 5 mps 756 mmHg 39%
    18:00 +27°C° 0 mm 5 mps 756 mmHg 45%
    19:00 +26°C° 0 mm 5 mps 756 mmHg 51%
    20:00 +25°C° 0 mm 5 mps 756 mmHg 58%
    21:00 +25°C° 0 mm 4 mps 756 mmHg 62%
    22:00 +24°C° 0 mm 3 mps 756 mmHg 66%
    23:00 +22°C° 0 mm 3 mps 756 mmHg 70%

    26 Octubre, Sábado

    Tiempo Temperatura Precipitaciones Viento Presión Humedad
    00:00 +23°C° 0 mm 2 mps 756 mmHg 72%
    01:00 +23°C° 0 mm 2 mps 756 mmHg 75%
    02:00 +21°C° 0 mm 2 mps 756 mmHg 77%
    03:00 +22°C° 0 mm 1 mps 756 mmHg 78%
    04:00 +22°C° 0 mm 1 mps 756 mmHg 80%
    05:00 +21°C° 0 mm 1 mps 756 mmHg 81%
    06:00 +22°C° 0 mm 1 mps 757 mmHg 76%
    07:00 +23°C° 0 mm 1 mps 757 mmHg 72%
    08:00 +24°C° 0 mm 1 mps 757 mmHg 67%
    09:00 +25°C° 0 mm 1 mps 757 mmHg 58%
    10:00 +27°C° 0 mm 2 mps 758 mmHg 49%
    11:00 +28°C° 0 mm 2 mps 758 mmHg 40%
    12:00 +29°C° 0 mm 2 mps 757 mmHg 36%
    13:00 +29°C° 0 mm 2 mps 756 mmHg 32%
    14:00 +30°C° 0 mm 3 mps 756 mmHg 27%
    15:00 +30°C° 0 mm 3 mps 756 mmHg 29%
    16:00 +29°C° 0 mm 4 mps 756 mmHg 30%
    17:00 +29°C° 0 mm 4 mps 756 mmHg 31%
    18:00 +27°C° 0 mm 5 mps 756 mmHg 39%
    19:00 +26°C° 0 mm 5 mps 756 mmHg 47%
    20:00 +24°C° 0 mm 6 mps 757 mmHg 56%
    21:00 +23°C° 0 mm 5 mps 757 mmHg 59%
    22:00 +23°C° 0 mm 4 mps 757 mmHg 62%
    23:00 +22°C° 0 mm 4 mps 757 mmHg 66%

    27 Octubre, Domingo

    Tiempo Temperatura Precipitaciones Viento Presión Humedad
    00:00 +22°C° 0 mm 3 mps 757 mmHg 67%
    01:00 +22°C° 0 mm 3 mps 757 mmHg 69%
    02:00 +21°C° 0 mm 3 mps 757 mmHg 70%
    03:00 +21°C° 0 mm 3 mps 757 mmHg 72%
    04:00 +21°C° 0 mm 2 mps 757 mmHg 73%
    05:00 +20°C° 0 mm 2 mps 757 mmHg 74%
    06:00 +21°C° 0 mm 2 mps 757 mmHg 71%
    07:00 +22°C° 0 mm 3 mps 757 mmHg 67%
    08:00 +22°C° 0 mm 3 mps 757 mmHg 64%
    09:00 +25°C° 0 mm 3 mps 757 mmHg 58%
    10:00 +26°C° 0 mm 3 mps 757 mmHg 51%
    11:00 +27°C° 0 mm 3 mps 757 mmHg 45%
    12:00 +28°C° 0 mm 3 mps 757 mmHg 41%
    13:00 +29°C° 0 mm 3 mps 756 mmHg 37%
    14:00 +30°C° 0 mm 3 mps 756 mmHg 34%
    15:00 +29°C° 0 mm 3 mps 756 mmHg 34%
    16:00 +29°C° 0 mm 3 mps 756 mmHg 34%
    17:00 +28°C° 0 mm 4 mps 756 mmHg 34%
    18:00 +27°C° 0 mm 4 mps 756 mmHg 41%
    19:00 +26°C° 0 mm 5 mps 756 mmHg 47%
    20:00 +23°C° 0 mm 6 mps 757 mmHg 54%
    21:00 +23°C° 0 mm 5 mps 757 mmHg 56%
    22:00 +22°C° 0 mm 4 mps 757 mmHg 58%
    23:00 +22°C° 0 mm 4 mps 757 mmHg 60%
    Mostrar más